Reno - Stead, NV

6:40 AM PDT on May 23, 2018 (GMT -0700)
Reno - Stead

Weather History for KRTS - October, 2012

Change the Weather History Date:

Sunday, October 21, 2012

  Actual Average (KRNO) Record (KRNO)
Temperature  
Mean Temperature 48 °F -  
Max Temperature 59 °F 66 °F 84 °F (2003)
Min Temperature 37 °F 31 °F 18 °F (1996)
Degree Days  
Heating Degree Days 17    
Moisture  
Dew Point 20 °F    
Average Humidity 38    
Maximum Humidity 75    
Minimum Humidity 9    
Precipitation  
Precipitation 0.00 in - - ()
Sea Level Pressure  
Sea Level Pressure 29.85 in    
Wind  
Wind Speed 10 mph ()    
Max Wind Speed 25 mph    
Max Gust Speed 36 mph    
Visibility 10.0 miles    
Events      
Averages and records for this station are not official NWS values.
T = Trace of Precipitation, MM = Missing Value Source: Averaged Metar Reports

Daily Weather History Graph

Daily Weather History Graph

Search for Another Location

Airport or City:

Astronomy

Oct. 21, 2012 Rise Set
Actual Time 7:16 AM PDT 6:10 PM PDT
Civil Twilight 6:49 AM PDT 6:38 PM PDT
Nautical Twilight 6:17 AM PDT 7:09 PM PDT
Astronomical Twilight 5:46 AM PDT 7:40 PM PDT
Moon 1:40 PM PDT (10/21) No Moon Set
Length of Visible Light 11h 49m
Length of Day
10h 54m
Waxing Crescent, 46% of the Moon is Illuminated
Oct 21
Waxing Crescent
Oct 21
First Quarter
Oct 29
Full
Nov 6
Last Quarter
Nov 13
New

Hourly Weather History & Observations

Time (PDT) Temp. Windchill Dew Point Humidity Pressure Visibility Wind Dir Wind Speed Gust Speed Precip Events Conditions
12:15 AM 50.0 °F - 35.6 °F 58% 29.89 in 10.0 mi WSW 13.8 mph 18.4 mph N/A   Clear
12:35 AM 50.0 °F - 35.6 °F 58% 29.89 in 10.0 mi West 11.5 mph - N/A   Clear
12:55 AM 48.2 °F - 33.8 °F 58% 29.88 in 10.0 mi WNW 6.9 mph - N/A   Clear
1:15 AM 48.2 °F - 35.6 °F 62% 29.88 in 10.0 mi WNW 10.4 mph - N/A   Clear
1:35 AM 48.2 °F - 35.6 °F 62% 29.88 in 10.0 mi WNW 11.5 mph - N/A   Clear
1:55 AM 46.4 °F 41.9 °F 33.8 °F 62% 29.88 in 10.0 mi WNW 9.2 mph - N/A   Clear
2:15 AM 46.4 °F 42.9 °F 33.8 °F 62% 29.88 in 10.0 mi WNW 6.9 mph - N/A   Clear
2:35 AM 46.4 °F 42.4 °F 33.8 °F 62% 29.88 in 10.0 mi WNW 8.1 mph - N/A   Clear
2:55 AM 42.8 °F 38.6 °F 32.0 °F 66% 29.88 in 10.0 mi NW 6.9 mph - N/A   Clear
3:15 AM 44.6 °F 42.2 °F 32.0 °F 61% 29.86 in 10.0 mi NW 4.6 mph - N/A   Clear
3:35 AM 42.8 °F 41.1 °F 32.0 °F 66% 29.86 in 10.0 mi North 3.5 mph - N/A   Clear
3:55 AM 44.6 °F 40.7 °F 32.0 °F 61% 29.86 in 10.0 mi North 6.9 mph - N/A   Clear
4:15 AM 42.8 °F 39.3 °F 32.0 °F 66% 29.86 in 10.0 mi NNW 5.8 mph - N/A   Clear
4:35 AM 44.6 °F 41.4 °F 30.2 °F 57% 29.86 in 10.0 mi North 5.8 mph - N/A   Clear
4:55 AM 41.0 °F 35.8 °F 32.0 °F 70% 29.86 in 10.0 mi NW 8.1 mph - N/A   Clear
5:15 AM 39.2 °F 32.5 °F 32.0 °F 75% 29.86 in 10.0 mi North 10.4 mph - N/A   Clear
5:35 AM 37.4 °F 32.1 °F 30.2 °F 75% 29.87 in 10.0 mi NW 6.9 mph - N/A   Clear
5:55 AM 39.2 °F 35.0 °F 30.2 °F 70% 29.87 in 10.0 mi NNW 5.8 mph - N/A   Scattered Clouds
6:15 AM 37.4 °F 32.1 °F 28.4 °F 70% 29.87 in 10.0 mi North 6.9 mph - N/A   Scattered Clouds
6:35 AM 41.0 °F - 26.6 °F 57% 29.87 in 10.0 mi Calm Calm - N/A   Mostly Cloudy
6:55 AM 39.2 °F 37.0 °F 28.4 °F 65% 29.87 in 10.0 mi NNW 3.5 mph - N/A   Scattered Clouds
7:15 AM 37.4 °F 34.9 °F 26.6 °F 65% 29.86 in 10.0 mi North 3.5 mph - N/A   Clear
7:55 AM 41.0 °F 36.4 °F 23.0 °F 49% 29.86 in 10.0 mi NNW 6.9 mph - N/A   Clear
8:15 AM 46.4 °F - 21.2 °F 37% 29.87 in 10.0 mi Calm Calm - N/A   Clear
9:15 AM 53.6 °F - 12.2 °F 19% 29.86 in 10.0 mi West 5.8 mph - N/A   Clear
9:55 AM 55.4 °F - 5.0 °F 13% 29.86 in 10.0 mi SW 11.5 mph 17.3 mph N/A   Clear
10:15 AM 55.4 °F - 1.4 °F 11% 29.86 in 10.0 mi SW 11.5 mph 24.2 mph N/A   Clear
10:35 AM 57.2 °F - 3.2 °F 11% 29.87 in 10.0 mi WSW 18.4 mph 24.2 mph N/A   Clear
10:55 AM 57.2 °F - 6.8 °F 13% 29.87 in 10.0 mi West 17.3 mph 27.6 mph N/A   Clear
11:15 AM 57.2 °F - 8.6 °F 14% 29.87 in 10.0 mi West 12.7 mph 17.3 mph N/A   Clear
11:35 AM 57.2 °F - 5.0 °F 12% 29.87 in 10.0 mi SW 15.0 mph 25.3 mph N/A   Clear
11:55 AM 57.2 °F - 1.4 °F 10% 29.87 in 10.0 mi WSW 25.3 mph 31.1 mph N/A   Clear
12:15 PM 59.0 °F - 1.4 °F 10% 29.86 in 10.0 mi WSW 17.3 mph 25.3 mph N/A   Clear
12:35 PM 59.0 °F - -0.4 °F 9% 29.86 in 10.0 mi WSW 25.3 mph 28.8 mph N/A   Clear
12:55 PM 59.0 °F - 1.4 °F 10% 29.85 in 10.0 mi West 18.4 mph 31.1 mph N/A   Clear
1:35 PM 59.0 °F - 5.0 °F 12% 29.83 in 10.0 mi West 24.2 mph 32.2 mph N/A   Clear
1:55 PM 59.0 °F - 5.0 °F 12% 29.83 in 10.0 mi SW 24.2 mph 31.1 mph N/A   Clear
2:15 PM 59.0 °F - 5.0 °F 12% 29.83 in 10.0 mi WSW 20.7 mph 28.8 mph N/A   Clear
2:35 PM 57.2 °F - 8.6 °F 14% 29.83 in 10.0 mi West 20.7 mph 33.4 mph N/A   Clear
2:55 PM 57.2 °F - 8.6 °F 14% 29.83 in 10.0 mi WSW 20.7 mph 31.1 mph N/A   Clear
3:55 PM 55.4 °F - 15.8 °F 21% 29.83 in 10.0 mi WSW 16.1 mph 31.1 mph N/A   Clear
4:15 PM 55.4 °F - 15.8 °F 21% 29.84 in 10.0 mi West 15.0 mph 25.3 mph N/A   Clear
4:35 PM 53.6 °F - 17.6 °F 24% 29.84 in 10.0 mi West 15.0 mph 29.9 mph N/A   Clear
4:55 PM 53.6 °F - 17.6 °F 24% 29.83 in 10.0 mi West 19.6 mph 25.3 mph N/A   Clear
5:15 PM 51.8 °F - 17.6 °F 26% 29.83 in 10.0 mi West 18.4 mph 28.8 mph N/A   Clear
5:35 PM 50.0 °F - 19.4 °F 30% 29.83 in 10.0 mi West 23.0 mph 35.7 mph N/A   Clear
5:55 PM 50.0 °F - 19.4 °F 30% 29.83 in 10.0 mi WSW 17.3 mph 23.0 mph N/A   Clear
6:35 PM 48.2 °F - 19.4 °F 32% 29.83 in 10.0 mi West 13.8 mph 20.7 mph N/A   Clear
6:55 PM 46.4 °F 44.3 °F 19.4 °F 34% 29.84 in 10.0 mi WSW 4.6 mph - N/A   Clear
7:35 PM 48.2 °F - 19.4 °F 32% 29.83 in 10.0 mi SW 11.5 mph - N/A   Clear
7:55 PM 48.2 °F - 19.4 °F 32% 29.83 in 10.0 mi SW 9.2 mph - N/A   Clear
8:15 PM 48.2 °F - 21.2 °F 34% 29.83 in 10.0 mi SW 15.0 mph - N/A   Clear
8:35 PM 48.2 °F - 21.2 °F 34% 29.83 in 10.0 mi SW 15.0 mph 21.9 mph N/A   Clear
9:15 PM 48.2 °F - 19.4 °F 32% 29.83 in 10.0 mi SSW 8.1 mph - N/A   Clear
9:35 PM 48.2 °F - 19.4 °F 32% 29.82 in 10.0 mi SSW 10.4 mph - N/A   Clear
9:55 PM 46.4 °F - 19.4 °F 34% 29.82 in 10.0 mi Calm Calm - N/A   Clear
10:35 PM 46.4 °F 44.3 °F 19.4 °F 34% 29.81 in 10.0 mi NE 4.6 mph - N/A   Clear
10:55 PM 46.4 °F - 19.4 °F 34% 29.80 in 10.0 mi Calm Calm - N/A   Clear
11:15 PM 46.4 °F - 19.4 °F 34% 29.81 in 10.0 mi Calm Calm - N/A   Clear
11:55 PM 48.2 °F - 23.0 °F 37% 29.78 in 10.0 mi SW 12.7 mph - N/A   Clear